Regional Weather Roundup
Issued by NWS

Home | Current Version | Previous Version | Text Only | Print | Product List | Glossary Off
Versions: 1 2 3 4 5 6 7 8 9 10 11 12 13 14 15 16 17 18 19 20 21 22 23 24 25 26 27 28 29 30 31 32 33 34 35 36 37 38 39 40 41 42 43 44 45 46 47 48 49 50

000
ASUS43 KOAX 260202
RWRNE

WEATHER ROUNDUP FOR NEBRASKA
NATIONAL WEATHER SERVICE OMAHA NE
900 PM CDT SAT APR 25 2015

NOTES: SATELLITE DATA IS BEING USED TO AUGMENT CLOUD COVER ABOVE
       12000 FEET.
       "FAIR" INDICATES FEW OR NO CLOUDS BELOW 12,000 FEET WITH NO
       SIGNIFICANT WEATHER AND/OR OBSTRUCTIONS TO VISIBILITY.

  * THESE STATIONS DO NOT REPORT WEATHER SUCH AS RAIN...SNOW OR FOG.

NEZ001>004-019>022-054>056-260300-
NEBRASKA PANHANDLE

CITY           SKY/WX    TMP DP  RH WIND       PRES   REMARKS
SCOTTSBLUFF    LGT RAIN  55  45  68 SE3       29.76R
ALLIANCE       CLOUDY    52  47  83 S12       29.76R
CHADRON        CLOUDY    54  47  77 E8        29.76R
KIMBALL        CLOUDY    48  43  81 NE10      29.76S
SIDNEY         CLOUDY    51  45  79 N16       29.78R
$$

NEZ057>060-069>072-079>082-260300-
SOUTHWEST NEBRASKA

CITY           SKY/WX    TMP DP  RH WIND       PRES   REMARKS
IMPERIAL       MOCLDY    57  49  74 E15       29.75R
LEXINGTON      CLOUDY    51  47  87 E12       29.80R
MCCOOK         PTCLDY    56  48  74 E14       29.75R
OGALLALA       CLOUDY    57  51  80 E18G26    29.76R
$$

NEZ005>010-023>029-035>040-094-260300-
NORTH CENTRAL NEBRASKA

CITY           SKY/WX    TMP DP  RH WIND       PRES   REMARKS
VALENTINE      CLOUDY    54  45  71 E13       29.83R
AINSWORTH      CLOUDY    54  46  73 E10       29.83R
BROKEN BOW     CLOUDY    52  46  80 E9        29.81R
O`NEILL        MOCLDY    54  47  77 E6        29.83R
ORD            CLOUDY    53  45  74 E9        29.81R
$$

NEZ041-046>049-061>064-073>077-083>087-260300-
SOUTH CENTRAL NEBRASKA

CITY           SKY/WX    TMP DP  RH WIND       PRES   REMARKS
GRAND ISLAND   CLOUDY    49  45  86 E13       29.83R
AURORA         CLOUDY    49  48  95 E15       29.83R
HASTINGS       CLOUDY    49  45  86 NE15      29.82R
HEBRON         CLOUDY    50  46  86 E9G17     29.81R
HOLDREGE       CLOUDY    49  46  92 NE15      29.80R
KEARNEY *      CLOUDY    48  45  87 NE14      29.82R
YORK           CLOUDY    48  46  93 NE13      29.83R
$$

NEZ011>018-030>034-042>045-260300-
NORTHEAST NEBRASKA

CITY           SKY/WX    TMP DP  RH WIND       PRES   REMARKS
NORFOLK        CLOUDY    53  45  74 E8        29.85R
ALBION         CLEAR     49  42  78 E8        29.84R
BLAIR          CLOUDY    49  44  81 NE8       29.84R
COLUMBUS *     CLOUDY    50  43  76 E9        29.85R
FREMONT        CLOUDY    52  45  76 NE9       29.85R
TEKAMAH        CLOUDY    52  45  77 E10       29.85R
WAYNE          CLOUDY    54  43  66 E9        29.87R
$$

NEZ050>053-065>068-078-088>093-260300-
SOUTHEAST NEBRASKA

CITY           SKY/WX    TMP DP  RH WIND       PRES   REMARKS
LINCOLN        CLOUDY    51  45  79 E15       29.84R
OMAHA EPPLEY   CLOUDY    51  45  79 NE8       29.84R
BEATRICE       CLOUDY    49  45  86 NE14G20   29.82R
FALLS CITY     CLOUDY    49  45  86 NE10      29.79R
NEBRASKA CITY  CLOUDY    49  46  89 NE12      29.81R
PLATTSMOUTH    CLOUDY    49  45  85 NE7       29.82R
$$

NEZ044-045-051>053-067-260300-
OMAHA AREA

CITY           SKY/WX    TMP DP  RH WIND       PRES   REMARKS
OMAHA EPPLEY   CLOUDY    51  45  79 NE8       29.84R
BLAIR          CLOUDY    49  44  81 NE8       29.84R
FREMONT        CLOUDY    52  45  76 NE9       29.85R
MILLARD        CLOUDY    52  45  76 E7        29.83S
OFFUTT AFB     CLOUDY    51  45  82 NE9       29.82S
PLATTSMOUTH    CLOUDY    49  45  85 NE7       29.82R
WAHOO          CLOUDY    51  44  77 NE14      29.84R
$$



USA.gov is the U.S. government's official web portal to all federal, state and local government web resources and services.